Location: Unspecified
(33.1563°N, 0.0000°E)
Time: 21:09:15
(UTC+00:00)

Courier 1B Rocket - Visible Passes

Search period start: 04 April 2026 00:00
Search period end: 14 April 2026 00:00
Orbit: 920 x 1201 km, 28.2° (Epoch: 28 March)

Date Brightness Start Highest point End Pass type
(mag) Time Alt. Az. Time Alt. Az. Time Alt. Az.
4 Apr 7.1 02:15:21 16° ESE 02:15:21 16° ESE 02:16:36 10° E visible
4 Apr 5.3 04:01:42 40° SW 04:03:27 50° S 04:09:56 10° ESE visible
5 Apr 5.8 03:04:20 39° SE 03:04:20 39° SE 03:08:40 10° ESE visible
5 Apr 5.8 04:50:42 15° WSW 04:55:21 35° SSW 05:01:26 10° SE visible
6 Apr 7.4 02:07:01 12° ESE 02:07:01 12° ESE 02:07:24 10° ESE visible
6 Apr 5.3 03:53:23 40° SW 03:54:14 42° SSW 04:00:25 10° SE visible
7 Apr 6.3 02:56:09 28° SE 02:56:09 28° SE 02:59:19 10° ESE visible
7 Apr 6.1 04:42:31 16° WSW 04:46:04 26° SSW 04:51:29 10° SSE visible
8 Apr 5.7 03:45:22 33° SSW 03:45:22 33° SSW 03:50:45 10° SE visible
9 Apr 6.8 02:48:18 17° SE 02:48:18 17° SE 02:49:51 10° SE visible
9 Apr 6.3 04:34:41 16° SW 04:36:45 19° SSW 04:41:05 10° SSE visible
9 Apr 6.8 20:00:20 10° S 20:02:17 14° S 20:02:17 14° S visible
10 Apr 6.3 03:37:42 21° S 03:37:42 21° S 03:40:49 10° SSE visible
10 Apr 6.8 20:49:58 10° SW 20:51:56 18° SSW 20:51:56 18° SSW visible
11 Apr 6.7 04:27:11 12° SSW 04:27:24 12° SSW 04:29:41 10° S visible
11 Apr 6.2 19:49:24 10° SSW 19:54:34 22° SSE 19:55:08 22° SSE visible
11 Apr 7.4 21:41:10 10° WSW 21:41:31 11° WSW 21:41:31 11° WSW visible
12 Apr 7.1 03:30:20 10° SSE 03:30:20 10° SSE 03:30:26 10° SSE visible
12 Apr 6.7 18:49:17 10° S 18:53:26 16° SSE 18:57:26 10° ESE visible
12 Apr 6.0 20:40:04 10° SW 20:44:40 32° SSW 20:44:40 32° SSW visible
13 Apr 6.0 19:39:08 10° SW 19:45:13 30° SSE 19:47:43 24° SE visible
13 Apr 6.7 21:31:41 10° WSW 21:34:07 22° WSW 21:34:07 22° WSW visible
